Time,TemperatureF,DewpointF,PressureIn,WindDirection,WindDirectionDegrees,WindSpeedMPH,WindSpeedGustMPH,Humidity,HourlyPrecipIn,Conditions,Clouds,dailyrainin,SoftwareType,DateUTC
2013-02-18 00:02:00,42.4,31.1,30.33,ENE,65,2.0,3.0,64,0.00,,,0.00,meteohub,2013-02-18 05:02:00,
2013-02-18 00:05:00,42.4,31.1,30.33,ENE,65,2.0,3.0,64,0.00,,,0.00,meteohub,2013-02-18 05:05:00,
2013-02-18 00:08:00,42.4,31.1,30.33,ENE,65,0.0,3.0,64,0.00,,,0.00,meteohub,2013-02-18 05:08:00,
2013-02-18 00:14:00,42.3,30.9,30.33,ENE,65,1.0,3.0,64,0.00,,,0.00,meteohub,2013-02-18 05:14:00,
2013-02-18 00:20:00,42.3,30.9,30.33,ENE,66,2.0,4.0,64,0.00,,,0.00,meteohub,2013-02-18 05:20:00,
2013-02-18 00:27:00,42.1,31.1,30.33,ENE,66,2.0,4.0,65,0.00,,,0.00,meteohub,2013-02-18 05:27:00,
2013-02-18 00:32:00,42.1,31.1,30.33,ENE,67,2.0,4.0,65,0.00,,,0.00,meteohub,2013-02-18 05:32:00,
2013-02-18 00:37:00,41.7,31.3,30.33,ENE,73,2.0,4.0,66,0.00,,,0.00,meteohub,2013-02-18 05:37:00,
2013-02-18 00:42:00,41.7,31.3,30.33,ENE,72,2.0,4.0,66,0.00,,,0.00,meteohub,2013-02-18 05:42:00,
2013-02-18 00:47:00,41.5,31.1,30.33,ENE,65,1.0,4.0,66,0.00,,,0.00,meteohub,2013-02-18 05:47:00,
2013-02-18 00:52:00,41.5,31.1,30.33,ENE,63,2.0,4.0,66,0.00,,,0.00,meteohub,2013-02-18 05:52:00,
2013-02-18 00:57:00,41.4,30.9,30.33,ENE,74,2.0,4.0,66,0.00,,,0.00,meteohub,2013-02-18 05:57:00,
2013-02-18 01:02:00,41.4,30.9,30.33,ENE,73,3.0,4.0,66,0.00,,,0.00,meteohub,2013-02-18 06:02:00,
2013-02-18 01:07:00,41.4,30.9,30.33,East,79,2.0,4.0,66,0.00,,,0.00,meteohub,2013-02-18 06:07:00,
2013-02-18 01:12:00,41.4,31.3,30.33,ENE,75,3.0,5.0,67,0.00,,,0.00,meteohub,2013-02-18 06:12:00,
2013-02-18 01:17:00,41.4,31.3,30.33,ENE,69,0.0,5.0,67,0.00,,,0.00,meteohub,2013-02-18 06:17:00,
2013-02-18 01:22:00,41.2,31.1,30.33,ENE,73,1.0,5.0,67,0.00,,,0.00,meteohub,2013-02-18 06:22:00,
2013-02-18 01:27:00,41.2,30.7,30.33,ENE,68,1.0,4.0,66,0.00,,,0.00,meteohub,2013-02-18 06:27:00,
2013-02-18 01:32:00,41.2,30.7,30.33,ENE,66,2.0,4.0,66,0.00,,,0.00,meteohub,2013-02-18 06:32:00,
2013-02-18 01:37:00,41.2,30.7,30.33,ENE,58,3.0,5.0,66,0.00,,,0.00,meteohub,2013-02-18 06:37:00,
2013-02-18 01:42:00,41.2,30.7,30.33,ENE,66,4.0,6.0,66,0.00,,,0.00,meteohub,2013-02-18 06:42:00,
2013-02-18 01:47:00,41.4,30.9,30.33,ENE,78,3.0,6.0,66,0.00,,,0.00,meteohub,2013-02-18 06:47:00,
2013-02-18 01:52:00,41.4,30.9,30.33,ENE,77,4.0,5.0,66,0.00,,,0.00,meteohub,2013-02-18 06:52:00,
2013-02-18 01:57:00,41.4,30.9,30.33,ENE,77,3.0,7.0,66,0.00,,,0.00,meteohub,2013-02-18 06:57:00,
2013-02-18 02:02:00,41.4,30.6,30.32,ENE,64,3.0,7.0,65,0.00,,,0.00,meteohub,2013-02-18 07:02:00,
2013-02-18 02:07:00,41.5,30.7,30.33,NE,54,1.0,7.0,65,0.00,,,0.00,meteohub,2013-02-18 07:07:00,
2013-02-18 02:12:00,41.5,30.7,30.32,NE,44,3.0,8.0,65,0.00,,,0.00,meteohub,2013-02-18 07:12:00,
2013-02-18 02:17:00,41.5,30.7,30.32,ENE,75,4.0,8.0,65,0.00,,,0.00,meteohub,2013-02-18 07:17:00,
2013-02-18 02:22:00,41.5,30.7,30.32,ENE,62,3.0,8.0,65,0.00,,,0.00,meteohub,2013-02-18 07:22:00,
2013-02-18 02:27:00,41.5,30.7,30.32,ENE,63,3.0,7.0,65,0.00,,,0.00,meteohub,2013-02-18 07:27:00,
2013-02-18 02:32:00,41.5,30.7,30.32,ENE,73,1.0,7.0,65,0.00,,,0.00,meteohub,2013-02-18 07:32:00,
2013-02-18 02:37:00,41.5,30.7,30.32,ENE,64,3.0,7.0,65,0.00,,,0.00,meteohub,2013-02-18 07:37:00,
2013-02-18 02:42:00,41.4,30.6,30.32,NE,54,3.0,7.0,65,0.00,,,0.00,meteohub,2013-02-18 07:42:00,
2013-02-18 02:47:00,41.4,30.6,30.32,ENE,76,3.0,7.0,65,0.00,,,0.00,meteohub,2013-02-18 07:47:00,
2013-02-18 02:52:00,41.4,30.6,30.32,ENE,59,3.0,6.0,65,0.00,,,0.00,meteohub,2013-02-18 07:52:00,
2013-02-18 02:57:00,41.2,30.4,30.32,ENE,62,5.0,7.0,65,0.00,,,0.00,meteohub,2013-02-18 07:57:00,
2013-02-18 03:02:00,41.2,30.7,30.32,ENE,73,3.0,7.0,66,0.00,,,0.00,meteohub,2013-02-18 08:02:00,
2013-02-18 03:07:00,41.0,30.6,30.32,ENE,70,4.0,7.0,66,0.00,,,0.00,meteohub,2013-02-18 08:07:00,
2013-02-18 03:12:00,40.8,30.4,30.32,ENE,70,2.0,7.0,66,0.00,,,0.00,meteohub,2013-02-18 08:12:00,
2013-02-18 03:17:00,40.8,30.7,30.32,East,82,3.0,7.0,67,0.00,,,0.00,meteohub,2013-02-18 08:17:00,
2013-02-18 03:22:00,40.6,30.6,30.32,ENE,78,3.0,7.0,67,0.00,,,0.00,meteohub,2013-02-18 08:22:00,
2013-02-18 03:27:00,40.6,30.6,30.32,ENE,77,3.0,7.0,67,0.00,,,0.00,meteohub,2013-02-18 08:27:00,
2013-02-18 03:32:00,40.6,30.9,30.32,ENE,75,5.0,7.0,68,0.00,,,0.00,meteohub,2013-02-18 08:32:00,
2013-02-18 03:37:00,40.5,31.1,30.32,ENE,64,8.0,8.0,69,0.00,,,0.00,meteohub,2013-02-18 08:37:00,
2013-02-18 03:42:00,40.3,31.3,30.32,ENE,73,4.0,9.0,70,0.00,,,0.00,meteohub,2013-02-18 08:42:00,
2013-02-18 03:47:00,40.1,31.5,30.31,East,85,6.0,9.0,71,0.00,,,0.00,meteohub,2013-02-18 08:47:00,
2013-02-18 03:52:00,39.9,31.6,30.31,ENE,69,4.0,9.0,72,0.00,,,0.00,meteohub,2013-02-18 08:52:00,
2013-02-18 03:57:00,39.9,31.6,30.31,East,79,7.0,9.0,72,0.00,,,0.00,meteohub,2013-02-18 08:57:00,
2013-02-18 04:02:00,39.7,31.5,30.31,ENE,74,4.0,7.0,72,0.00,,,0.00,meteohub,2013-02-18 09:02:00,
2013-02-18 04:07:00,39.7,31.1,30.31,East,85,5.0,7.0,71,0.00,,,0.00,meteohub,2013-02-18 09:07:00,
2013-02-18 04:12:00,39.9,30.9,30.31,East,83,7.0,7.0,70,0.00,,,0.00,meteohub,2013-02-18 09:12:00,
2013-02-18 04:17:00,39.9,30.9,30.31,East,85,7.0,10.0,70,0.00,,,0.00,meteohub,2013-02-18 09:17:00,
2013-02-18 04:22:00,40.3,30.9,30.31,East,79,3.0,10.0,69,0.00,,,0.00,meteohub,2013-02-18 09:22:00,
2013-02-18 04:28:00,40.3,30.9,30.31,East,89,6.0,9.0,69,0.00,,,0.00,meteohub,2013-02-18 09:28:00,
2013-02-18 04:34:00,40.1,30.7,30.31,ENE,73,4.0,9.0,69,0.00,,,0.00,meteohub,2013-02-18 09:34:00,
2013-02-18 04:40:00,40.1,30.7,30.31,ENE,73,3.0,9.0,69,0.00,,,0.00,meteohub,2013-02-18 09:40:00,
2013-02-18 04:46:00,39.9,30.9,30.30,East,88,6.0,10.0,70,0.00,,,0.00,meteohub,2013-02-18 09:46:00,
2013-02-18 04:52:00,39.9,30.9,30.30,ENE,77,3.0,10.0,70,0.00,,,0.00,meteohub,2013-02-18 09:52:00,
2013-02-18 04:57:00,39.9,30.9,30.31,East,86,7.0,9.0,70,0.00,,,0.00,meteohub,2013-02-18 09:57:00,
2013-02-18 05:02:00,39.9,30.9,30.31,East,79,6.0,8.0,70,0.00,,,0.00,meteohub,2013-02-18 10:02:00,
2013-02-18 05:07:00,39.9,30.9,30.31,East,80,3.0,9.0,70,0.00,,,0.00,meteohub,2013-02-18 10:07:00,
2013-02-18 05:13:00,39.7,30.7,30.31,NE,48,3.0,9.0,70,0.00,,,0.00,meteohub,2013-02-18 10:13:00,
2013-02-18 05:19:00,39.7,30.4,30.31,East,79,6.0,9.0,69,0.00,,,0.00,meteohub,2013-02-18 10:19:00,
2013-02-18 05:25:00,39.6,30.2,30.31,East,91,5.0,8.0,69,0.00,,,0.00,meteohub,2013-02-18 10:25:00,
2013-02-18 05:31:00,39.6,30.2,30.31,ESE,102,4.0,8.0,69,0.00,,,0.00,meteohub,2013-02-18 10:31:00,
2013-02-18 05:37:00,39.6,29.8,30.32,ESE,104,5.0,8.0,68,0.00,,,0.00,meteohub,2013-02-18 10:37:00,
2013-02-18 05:42:00,39.6,29.8,30.32,East,86,3.0,8.0,68,0.00,,,0.00,meteohub,2013-02-18 10:42:00,
2013-02-18 05:47:00,39.4,30.0,30.32,East,95,6.0,8.0,69,0.00,,,0.00,meteohub,2013-02-18 10:47:00,
2013-02-18 05:52:00,39.4,30.0,30.32,East,91,5.0,8.0,69,0.00,,,0.00,meteohub,2013-02-18 10:52:00,
2013-02-18 05:57:00,39.4,29.7,30.32,ESE,109,7.0,9.0,68,0.00,,,0.00,meteohub,2013-02-18 10:57:00,
2013-02-18 06:02:00,39.4,29.7,30.32,East,96,3.0,9.0,68,0.00,,,0.00,meteohub,2013-02-18 11:02:00,
2013-02-18 06:07:00,39.2,29.8,30.32,East,86,8.0,9.0,69,0.00,,,0.00,meteohub,2013-02-18 11:07:00,
2013-02-18 06:13:00,39.2,29.5,30.32,East,81,5.0,9.0,68,0.00,,,0.00,meteohub,2013-02-18 11:13:00,
2013-02-18 06:20:00,39.0,29.7,30.32,East,93,7.0,9.0,69,0.00,,,0.00,meteohub,2013-02-18 11:20:00,
2013-02-18 06:26:00,39.0,29.7,30.32,ESE,102,4.0,8.0,69,0.00,,,0.00,meteohub,2013-02-18 11:26:00,
2013-02-18 06:32:00,38.8,29.5,30.32,East,86,6.0,8.0,69,0.00,,,0.00,meteohub,2013-02-18 11:32:00,
2013-02-18 06:37:00,38.8,29.1,30.32,East,95,3.0,7.0,68,0.00,,,0.00,meteohub,2013-02-18 11:37:00,
2013-02-18 06:42:00,38.8,29.1,30.33,East,93,3.0,8.0,68,0.00,,,0.00,meteohub,2013-02-18 11:42:00,
2013-02-18 06:47:00,38.8,28.8,30.33,East,92,5.0,8.0,67,0.00,,,0.00,meteohub,2013-02-18 11:47:00,
2013-02-18 06:52:00,38.8,28.8,30.33,East,93,2.0,7.0,67,0.00,,,0.00,meteohub,2013-02-18 11:52:00,
2013-02-18 06:57:00,38.8,28.8,30.32,East,87,8.0,8.0,67,0.00,,,0.00,meteohub,2013-02-18 11:57:00,
2013-02-18 07:02:00,38.8,28.4,30.33,East,95,6.0,8.0,66,0.00,,,0.00,meteohub,2013-02-18 12:02:00,
2013-02-18 07:07:00,39.0,28.2,30.32,East,87,3.0,10.0,65,0.00,,,0.00,meteohub,2013-02-18 12:07:00,
2013-02-18 07:12:00,39.0,28.6,30.32,ESE,103,7.0,10.0,66,0.00,,,0.00,meteohub,2013-02-18 12:12:00,
2013-02-18 07:17:00,39.0,28.6,30.33,East,91,9.0,10.0,66,0.00,,,0.00,meteohub,2013-02-18 12:17:00,
2013-02-18 07:23:00,39.4,28.9,30.33,East,97,8.0,10.0,66,0.00,,,0.00,meteohub,2013-02-18 12:23:00,
2013-02-18 07:29:00,39.7,29.3,30.33,East,100,7.0,10.0,66,0.00,,,0.00,meteohub,2013-02-18 12:29:00,
2013-02-18 07:35:00,39.9,29.5,30.33,East,89,7.0,10.0,66,0.00,,,0.00,meteohub,2013-02-18 12:35:00,
2013-02-18 07:41:00,40.3,29.8,30.34,ESE,106,7.0,9.0,66,0.00,,,0.00,meteohub,2013-02-18 12:41:00,
2013-02-18 07:47:00,40.5,30.0,30.34,East,85,5.0,9.0,66,0.00,,,0.00,meteohub,2013-02-18 12:47:00,
2013-02-18 07:52:00,40.8,30.0,30.33,East,87,5.0,9.0,65,0.00,,,0.00,meteohub,2013-02-18 12:52:00,
2013-02-18 07:57:00,41.2,30.4,30.33,East,81,3.0,9.0,65,0.00,,,0.00,meteohub,2013-02-18 12:57:00,
2013-02-18 08:02:00,41.5,30.2,30.33,East,79,1.0,8.0,64,0.00,,,0.00,meteohub,2013-02-18 13:02:00,
2013-02-18 08:07:00,42.1,30.4,30.34,East,93,8.0,8.0,63,0.00,,,0.00,meteohub,2013-02-18 13:07:00,
2013-02-18 08:12:00,42.4,30.4,30.34,East,93,3.0,8.0,62,0.00,,,0.00,meteohub,2013-02-18 13:12:00,
2013-02-18 08:17:00,43.0,30.0,30.34,East,89,3.0,8.0,60,0.00,,,0.00,meteohub,2013-02-18 13:17:00,
2013-02-18 08:23:00,43.5,30.2,30.34,East,89,5.0,8.0,59,0.00,,,0.00,meteohub,2013-02-18 13:23:00,
2013-02-18 08:29:00,44.1,30.7,30.35,East,85,6.0,6.0,59,0.00,,,0.00,meteohub,2013-02-18 13:29:00,
2013-02-18 08:36:00,44.8,30.6,30.34,East,85,6.0,8.0,57,0.00,,,0.00,meteohub,2013-02-18 13:36:00,
2013-02-18 08:42:00,45.3,30.0,30.34,ENE,68,3.0,8.0,55,0.00,,,0.00,meteohub,2013-02-18 13:42:00,
2013-02-18 08:47:00,45.9,29.3,30.34,ENE,71,5.0,9.0,52,0.00,,,0.00,meteohub,2013-02-18 13:47:00,
2013-02-18 08:54:00,46.4,29.3,30.34,ENE,72,7.0,11.0,51,0.00,,,0.00,meteohub,2013-02-18 13:54:00,
2013-02-18 09:00:00,46.9,29.3,30.34,ENE,73,5.0,11.0,50,0.00,,,0.00,meteohub,2013-02-18 14:00:00,
2013-02-18 09:06:00,47.7,28.4,30.34,East,82,10.0,11.0,47,0.00,,,0.00,meteohub,2013-02-18 14:06:00,
2013-02-18 09:12:00,48.4,25.7,30.35,East,87,10.0,13.0,41,0.00,,,0.00,meteohub,2013-02-18 14:12:00,
2013-02-18 09:17:00,48.7,24.8,30.34,East,79,9.0,14.0,39,0.00,,,0.00,meteohub,2013-02-18 14:17:00,
2013-02-18 09:22:00,49.3,24.1,30.34,East,82,7.0,14.0,37,0.00,,,0.00,meteohub,2013-02-18 14:22:00,
2013-02-18 09:27:00,49.5,23.5,30.34,East,99,13.0,14.0,36,0.00,,,0.00,meteohub,2013-02-18 14:27:00,
2013-02-18 09:32:00,50.2,24.3,30.35,ENE,64,7.0,13.0,36,0.00,,,0.00,meteohub,2013-02-18 14:32:00,
2013-02-18 09:39:00,50.5,23.2,30.35,ESE,104,7.0,13.0,34,0.00,,,0.00,meteohub,2013-02-18 14:39:00,
2013-02-18 09:45:00,50.9,22.8,30.35,East,96,10.0,13.0,33,0.00,,,0.00,meteohub,2013-02-18 14:45:00,
2013-02-18 09:51:00,51.3,23.9,30.35,East,93,14.0,14.0,34,0.00,,,0.00,meteohub,2013-02-18 14:51:00,
2013-02-18 09:57:00,51.6,23.4,30.35,East,97,9.0,15.0,33,0.00,,,0.00,meteohub,2013-02-18 14:57:00,
2013-02-18 10:02:00,52.2,22.5,30.35,East,98,6.0,15.0,31,0.00,,,0.00,meteohub,2013-02-18 15:02:00,
2013-02-18 10:07:00,52.5,24.3,30.35,ENE,70,4.0,15.0,33,0.00,,,0.00,meteohub,2013-02-18 15:07:00,
2013-02-18 10:12:00,53.1,23.2,30.35,ESE,102,9.0,13.0,31,0.00,,,0.00,meteohub,2013-02-18 15:12:00,
2013-02-18 10:17:00,53.4,23.5,30.35,ESE,108,9.0,14.0,31,0.00,,,0.00,meteohub,2013-02-18 15:17:00,
2013-02-18 10:22:00,53.8,24.6,30.35,ESE,102,8.0,14.0,32,0.00,,,0.00,meteohub,2013-02-18 15:22:00,
2013-02-18 10:27:00,53.6,25.2,30.35,ENE,61,10.0,14.0,33,0.00,,,0.00,meteohub,2013-02-18 15:27:00,
2013-02-18 10:32:00,53.8,25.3,30.35,East,81,8.0,14.0,33,0.00,,,0.00,meteohub,2013-02-18 15:32:00,
2013-02-18 10:37:00,54.1,25.7,30.35,ENE,76,3.0,14.0,33,0.00,,,0.00,meteohub,2013-02-18 15:37:00,
2013-02-18 10:42:00,54.7,26.8,30.35,ESE,115,10.0,14.0,34,0.00,,,0.00,meteohub,2013-02-18 15:42:00,
2013-02-18 10:47:00,55.6,27.0,30.35,SE,124,4.0,14.0,33,0.00,,,0.00,meteohub,2013-02-18 15:47:00,
2013-02-18 10:52:00,56.1,27.3,30.35,SE,140,7.0,14.0,33,0.00,,,0.00,meteohub,2013-02-18 15:52:00,
2013-02-18 10:57:00,56.1,28.0,30.35,ENE,73,8.0,14.0,34,0.00,,,0.00,meteohub,2013-02-18 15:57:00,
2013-02-18 11:02:00,56.5,28.4,30.35,East,99,10.0,14.0,34,0.00,,,0.00,meteohub,2013-02-18 16:02:00,
2013-02-18 11:07:00,56.3,28.9,30.34,SSE,152,9.0,14.0,35,0.00,,,0.00,meteohub,2013-02-18 16:07:00,
2013-02-18 11:12:00,56.5,29.8,30.34,ESE,123,8.0,14.0,36,0.00,,,0.00,meteohub,2013-02-18 16:12:00,
2013-02-18 11:17:00,56.7,30.7,30.35,SE,137,4.0,14.0,37,0.00,,,0.00,meteohub,2013-02-18 16:17:00,
2013-02-18 11:24:00,57.0,31.6,30.34,SE,144,4.0,13.0,38,0.00,,,0.00,meteohub,2013-02-18 16:24:00,
2013-02-18 11:31:00,57.4,32.5,30.34,ESE,102,10.0,14.0,39,0.00,,,0.00,meteohub,2013-02-18 16:31:00,
2013-02-18 11:37:00,57.4,32.5,30.33,East,92,10.0,15.0,39,0.00,,,0.00,meteohub,2013-02-18 16:37:00,
2013-02-18 11:42:00,57.4,32.5,30.33,East,95,6.0,16.0,39,0.00,,,0.00,meteohub,2013-02-18 16:42:00,
2013-02-18 11:47:00,57.6,33.4,30.33,ESE,106,10.0,16.0,40,0.00,,,0.00,meteohub,2013-02-18 16:47:00,
2013-02-18 11:52:00,58.3,34.0,30.33,SE,127,6.0,16.0,40,0.00,,,0.00,meteohub,2013-02-18 16:52:00,
2013-02-18 11:57:00,58.3,34.7,30.32,East,87,9.0,15.0,41,0.00,,,0.00,meteohub,2013-02-18 16:57:00,
2013-02-18 12:02:00,58.6,34.3,30.32,ENE,73,4.0,14.0,40,0.00,,,0.00,meteohub,2013-02-18 17:02:00,
2013-02-18 12:07:00,59.4,35.6,30.32,South,178,7.0,13.0,41,0.00,,,0.00,meteohub,2013-02-18 17:07:00,
2013-02-18 12:12:00,59.4,35.1,30.31,ESE,108,5.0,12.0,40,0.00,,,0.00,meteohub,2013-02-18 17:12:00,
2013-02-18 12:19:00,59.2,34.9,30.31,East,96,8.0,14.0,40,0.00,,,0.00,meteohub,2013-02-18 17:19:00,
2013-02-18 12:25:00,59.4,35.6,30.30,East,93,10.0,15.0,41,0.00,,,0.00,meteohub,2013-02-18 17:25:00,
2013-02-18 12:31:00,59.5,35.8,30.30,East,85,10.0,17.0,41,0.00,,,0.00,meteohub,2013-02-18 17:31:00,
2013-02-18 12:37:00,59.7,36.5,30.30,East,96,7.0,17.0,42,0.00,,,0.00,meteohub,2013-02-18 17:37:00,
2013-02-18 12:42:00,60.6,36.9,30.29,East,97,8.0,16.0,41,0.00,,,0.00,meteohub,2013-02-18 17:42:00,
2013-02-18 12:47:00,60.6,36.9,30.29,ESE,102,10.0,16.0,41,0.00,,,0.00,meteohub,2013-02-18 17:47:00,
2013-02-18 12:52:00,60.6,36.9,30.29,East,94,9.0,16.0,41,0.00,,,0.00,meteohub,2013-02-18 17:52:00,
2013-02-18 12:58:00,61.3,37.4,30.28,East,100,8.0,16.0,41,0.00,,,0.00,meteohub,2013-02-18 17:58:00,
2013-02-18 13:05:00,61.2,37.2,30.28,ESE,110,12.0,16.0,41,0.00,,,0.00,meteohub,2013-02-18 18:05:00,
2013-02-18 13:11:00,61.5,38.3,30.28,East,87,3.0,16.0,42,0.00,,,0.00,meteohub,2013-02-18 18:11:00,
2013-02-18 13:17:00,62.1,38.7,30.27,SE,144,6.0,14.0,42,0.00,,,0.00,meteohub,2013-02-18 18:17:00,
2013-02-18 13:22:00,62.8,39.4,30.27,ESE,105,5.0,14.0,42,0.00,,,0.00,meteohub,2013-02-18 18:22:00,
2013-02-18 13:27:00,63.3,39.2,30.27,ENE,70,3.0,14.0,41,0.00,,,0.00,meteohub,2013-02-18 18:27:00,
2013-02-18 13:32:00,63.3,39.9,30.26,East,93,3.0,14.0,42,0.00,,,0.00,meteohub,2013-02-18 18:32:00,
2013-02-18 13:38:00,63.7,40.1,30.26,East,100,8.0,14.0,42,0.00,,,0.00,meteohub,2013-02-18 18:38:00,
2013-02-18 13:44:00,63.7,40.1,30.26,SE,127,2.0,14.0,42,0.00,,,0.00,meteohub,2013-02-18 18:44:00,
2013-02-18 13:50:00,64.6,41.0,30.25,East,100,3.0,15.0,42,0.00,,,0.00,meteohub,2013-02-18 18:50:00,
2013-02-18 13:56:00,64.9,41.4,30.25,East,87,9.0,14.0,42,0.00,,,0.00,meteohub,2013-02-18 18:56:00,
2013-02-18 14:02:00,64.9,41.9,30.25,ESE,102,10.0,14.0,43,0.00,,,0.00,meteohub,2013-02-18 19:02:00,
2013-02-18 14:08:00,65.1,42.1,30.24,East,91,14.0,14.0,43,0.00,,,0.00,meteohub,2013-02-18 19:08:00,
2013-02-18 14:15:00,65.5,42.4,30.24,ESE,118,8.0,17.0,43,0.00,,,0.00,meteohub,2013-02-18 19:15:00,
2013-02-18 14:21:00,65.7,41.9,30.24,SSE,165,6.0,19.0,42,0.00,,,0.00,meteohub,2013-02-18 19:21:00,
2013-02-18 14:27:00,65.5,41.7,30.23,East,82,5.0,19.0,42,0.00,,,0.00,meteohub,2013-02-18 19:27:00,
2013-02-18 14:32:00,66.0,42.3,30.23,SSE,154,9.0,19.0,42,0.00,,,0.00,meteohub,2013-02-18 19:32:00,
2013-02-18 14:37:00,66.2,43.0,30.23,ESE,109,4.0,16.0,43,0.00,,,0.00,meteohub,2013-02-18 19:37:00,
2013-02-18 14:42:00,66.6,43.3,30.23,East,89,10.0,15.0,43,0.00,,,0.00,meteohub,2013-02-18 19:42:00,
2013-02-18 14:47:00,66.0,42.8,30.23,East,79,7.0,15.0,43,0.00,,,0.00,meteohub,2013-02-18 19:47:00,
2013-02-18 14:52:00,66.6,43.3,30.23,SSE,148,8.0,14.0,43,0.00,,,0.00,meteohub,2013-02-18 19:52:00,
2013-02-18 14:57:00,66.9,43.2,30.23,SE,141,7.0,14.0,42,0.00,,,0.00,meteohub,2013-02-18 19:57:00,
2013-02-18 15:03:00,66.7,43.0,30.22,SE,145,3.0,14.0,42,0.00,,,0.00,meteohub,2013-02-18 20:03:00,
2013-02-18 15:09:00,66.9,43.2,30.22,SE,143,5.0,14.0,42,0.00,,,0.00,meteohub,2013-02-18 20:09:00,
2013-02-18 15:15:00,66.9,43.7,30.22,East,93,13.0,14.0,43,0.00,,,0.00,meteohub,2013-02-18 20:15:00,
2013-02-18 15:21:00,67.3,44.1,30.22,SE,145,5.0,15.0,43,0.00,,,0.00,meteohub,2013-02-18 20:21:00,
2013-02-18 15:27:00,67.5,44.2,30.22,ESE,122,5.0,15.0,43,0.00,,,0.00,meteohub,2013-02-18 20:27:00,
2013-02-18 15:32:00,67.3,44.1,30.22,East,97,11.0,15.0,43,0.00,,,0.00,meteohub,2013-02-18 20:32:00,
2013-02-18 15:37:00,67.3,44.6,30.22,ESE,108,2.0,14.0,44,0.00,,,0.00,meteohub,2013-02-18 20:37:00,
2013-02-18 15:42:00,67.5,44.2,30.22,South,172,6.0,14.0,43,0.00,,,0.00,meteohub,2013-02-18 20:42:00,
2013-02-18 15:49:00,67.3,44.1,30.21,East,85,6.0,14.0,43,0.00,,,0.00,meteohub,2013-02-18 20:49:00,
2013-02-18 15:55:00,67.5,44.8,30.22,East,85,2.0,17.0,44,0.00,,,0.00,meteohub,2013-02-18 20:55:00,
2013-02-18 16:01:00,67.8,44.4,30.21,SE,126,6.0,17.0,43,0.00,,,0.00,meteohub,2013-02-18 21:01:00,
2013-02-18 16:07:00,67.5,44.2,30.21,East,86,11.0,15.0,43,0.00,,,0.00,meteohub,2013-02-18 21:07:00,
2013-02-18 16:13:00,67.5,44.2,30.21,ESE,120,8.0,15.0,43,0.00,,,0.00,meteohub,2013-02-18 21:13:00,
2013-02-18 16:19:00,67.5,44.2,30.21,ESE,108,3.0,15.0,43,0.00,,,0.00,meteohub,2013-02-18 21:19:00,
2013-02-18 16:25:00,67.1,44.4,30.21,ESE,106,4.0,13.0,44,0.00,,,0.00,meteohub,2013-02-18 21:25:00,
2013-02-18 16:31:00,66.9,44.2,30.21,ESE,104,11.0,13.0,44,0.00,,,0.00,meteohub,2013-02-18 21:31:00,
2013-02-18 16:37:00,66.4,44.4,30.22,SE,145,6.0,13.0,45,0.00,,,0.00,meteohub,2013-02-18 21:37:00,
2013-02-18 16:42:00,66.4,44.4,30.21,East,96,2.0,13.0,45,0.00,,,0.00,meteohub,2013-02-18 21:42:00,
2013-02-18 16:47:00,66.4,44.4,30.22,ESE,104,0.0,13.0,45,0.00,,,0.00,meteohub,2013-02-18 21:47:00,
2013-02-18 16:52:00,66.4,45.0,30.21,ESE,108,4.0,11.0,46,0.00,,,0.00,meteohub,2013-02-18 21:52:00,
2013-02-18 16:57:00,66.2,44.8,30.21,East,98,0.0,10.0,46,0.00,,,0.00,meteohub,2013-02-18 21:57:00,
2013-02-18 17:02:00,66.2,44.2,30.21,ESE,107,4.0,10.0,45,0.00,,,0.00,meteohub,2013-02-18 22:02:00,
2013-02-18 17:07:00,66.4,44.4,30.21,SSE,162,3.0,12.0,45,0.00,,,0.00,meteohub,2013-02-18 22:07:00,
2013-02-18 17:13:00,66.7,44.8,30.20,SE,135,5.0,12.0,45,0.00,,,0.00,meteohub,2013-02-18 22:13:00,
2013-02-18 17:19:00,67.1,45.0,30.20,SE,137,5.0,12.0,45,0.00,,,0.00,meteohub,2013-02-18 22:19:00,
2013-02-18 17:25:00,66.9,44.2,30.20,East,93,2.0,9.0,44,0.00,,,0.00,meteohub,2013-02-18 22:25:00,
2013-02-18 17:31:00,66.9,44.2,30.20,ESE,108,1.0,9.0,44,0.00,,,0.00,meteohub,2013-02-18 22:31:00,
2013-02-18 17:37:00,67.3,44.1,30.21,ESE,104,1.0,9.0,43,0.00,,,0.00,meteohub,2013-02-18 22:37:00,
2013-02-18 17:42:00,67.3,47.5,30.20,SE,139,0.0,8.0,49,0.00,,,0.00,meteohub,2013-02-18 22:42:00,
2013-02-18 17:47:00,65.7,48.0,30.20,WNW,303,0.0,7.0,53,0.00,,,0.00,meteohub,2013-02-18 22:47:00,
2013-02-18 17:52:00,64.8,47.7,30.20,WNW,294,2.0,7.0,54,0.00,,,0.00,meteohub,2013-02-18 22:52:00,
2013-02-18 17:57:00,64.0,48.0,30.21,NW,311,0.0,8.0,56,0.00,,,0.00,meteohub,2013-02-18 22:57:00,
2013-02-18 18:02:00,64.2,47.7,30.21,WNW,285,0.0,8.0,55,0.00,,,0.00,meteohub,2013-02-18 23:02:00,
2013-02-18 18:07:00,63.9,47.8,30.21,WNW,292,3.0,8.0,56,0.00,,,0.00,meteohub,2013-02-18 23:07:00,
2013-02-18 18:12:00,63.3,47.8,30.21,West,260,3.0,7.0,57,0.00,,,0.00,meteohub,2013-02-18 23:12:00,
2013-02-18 18:17:00,63.3,48.4,30.20,West,262,0.0,7.0,58,0.00,,,0.00,meteohub,2013-02-18 23:17:00,
2013-02-18 18:22:00,63.1,48.6,30.20,WNW,289,2.0,7.0,59,0.00,,,0.00,meteohub,2013-02-18 23:22:00,
2013-02-18 18:27:00,63.0,48.4,30.20,WNW,302,3.0,4.0,59,0.00,,,0.00,meteohub,2013-02-18 23:27:00,
2013-02-18 18:32:00,62.8,48.2,30.20,WNW,302,0.0,4.0,59,0.00,,,0.00,meteohub,2013-02-18 23:32:00,
2013-02-18 18:38:00,62.8,48.2,30.19,WNW,294,0.0,4.0,59,0.00,,,0.00,meteohub,2013-02-18 23:38:00,
2013-02-18 18:44:00,62.6,47.7,30.19,WNW,294,0.0,3.0,58,0.00,,,0.00,meteohub,2013-02-18 23:44:00,
2013-02-18 18:50:00,62.4,47.8,30.19,WNW,294,1.0,3.0,59,0.00,,,0.00,meteohub,2013-02-18 23:50:00,
2013-02-18 18:56:00,61.9,49.6,30.19,North,354,2.0,4.0,64,0.00,,,0.00,meteohub,2013-02-18 23:56:00,
2013-02-18 19:02:00,60.4,49.8,30.20,NNW,338,1.0,6.0,68,0.00,,,0.00,meteohub,2013-02-19 00:02:00,
2013-02-18 19:07:00,59.5,50.2,30.20,NNW,340,2.0,8.0,71,0.00,,,0.00,meteohub,2013-02-19 00:07:00,
2013-02-18 19:12:00,59.0,49.6,30.20,NW,317,3.0,8.0,71,0.00,,,0.00,meteohub,2013-02-19 00:12:00,
2013-02-18 19:17:00,58.6,49.6,30.20,NNW,344,6.0,7.0,72,0.00,,,0.00,meteohub,2013-02-19 00:17:00,
2013-02-18 19:22:00,58.5,49.8,30.20,North,349,4.0,8.0,73,0.00,,,0.00,meteohub,2013-02-19 00:22:00,
2013-02-18 19:27:00,58.3,50.0,30.20,NW,315,5.0,8.0,74,0.00,,,0.00,meteohub,2013-02-19 00:27:00,
2013-02-18 19:32:00,58.1,50.2,30.20,NNW,332,2.0,8.0,75,0.00,,,0.00,meteohub,2013-02-19 00:32:00,
2013-02-18 19:38:00,57.9,50.4,30.20,NNW,332,5.0,8.0,76,0.00,,,0.00,meteohub,2013-02-19 00:38:00,
2013-02-18 19:44:00,57.7,50.5,30.21,NNW,344,5.0,8.0,77,0.00,,,0.00,meteohub,2013-02-19 00:44:00,
2013-02-18 19:50:00,57.7,50.5,30.21,NNW,339,0.0,8.0,77,0.00,,,0.00,meteohub,2013-02-19 00:50:00,
2013-02-18 19:57:00,57.7,50.9,30.21,NNW,330,3.0,8.0,78,0.00,,,0.00,meteohub,2013-02-19 00:57:00,
2013-02-18 20:02:00,57.9,51.4,30.21,NNW,334,4.0,8.0,79,0.00,,,0.00,meteohub,2013-02-19 01:02:00,
2013-02-18 20:07:00,57.9,51.4,30.21,WNW,291,0.0,8.0,79,0.00,,,0.00,meteohub,2013-02-19 01:07:00,
2013-02-18 20:12:00,57.7,51.3,30.21,NNW,347,5.0,7.0,79,0.00,,,0.00,meteohub,2013-02-19 01:12:00,
2013-02-18 20:18:00,57.7,51.6,30.21,NNE,14,4.0,8.0,80,0.00,,,0.00,meteohub,2013-02-19 01:18:00,
2013-02-18 20:24:00,57.6,51.4,30.21,NNE,30,1.0,8.0,80,0.00,,,0.00,meteohub,2013-02-19 01:24:00,
2013-02-18 20:31:00,57.4,51.3,30.22,NNE,30,1.0,5.0,80,0.00,,,0.00,meteohub,2013-02-19 01:31:00,
2013-02-18 20:37:00,57.0,50.2,30.21,NNE,29,2.0,4.0,78,0.00,,,0.00,meteohub,2013-02-19 01:37:00,
2013-02-18 20:42:00,57.0,50.2,30.21,NNE,30,0.0,4.0,78,0.00,,,0.00,meteohub,2013-02-19 01:42:00,
2013-02-18 20:47:00,56.8,49.6,30.21,NNE,29,0.0,4.0,77,0.00,,,0.00,meteohub,2013-02-19 01:47:00,
2013-02-18 20:52:00,56.7,49.5,30.21,NNE,30,0.0,4.0,77,0.00,,,0.00,meteohub,2013-02-19 01:52:00,
2013-02-18 20:57:00,56.7,49.5,30.21,NNE,30,0.0,3.0,77,0.00,,,0.00,meteohub,2013-02-19 01:57:00,
2013-02-18 21:02:00,56.7,49.5,30.20,NNE,30,0.0,1.0,77,0.00,,,0.00,meteohub,2013-02-19 02:02:00,
2013-02-18 21:07:00,56.5,48.9,30.20,NNE,30,0.0,2.0,76,0.00,,,0.00,meteohub,2013-02-19 02:07:00,
2013-02-18 21:12:00,56.3,49.1,30.20,NNE,29,0.0,2.0,77,0.00,,,0.00,meteohub,2013-02-19 02:12:00,
2013-02-18 21:17:00,56.1,48.7,30.20,NNE,29,0.0,2.0,76,0.00,,,0.00,meteohub,2013-02-19 02:17:00,
2013-02-18 21:22:00,56.1,48.9,30.20,NNE,29,1.0,1.0,77,0.00,,,0.00,meteohub,2013-02-19 02:22:00,
2013-02-18 21:28:00,55.9,48.6,30.20,NNE,30,0.0,1.0,76,0.00,,,0.00,meteohub,2013-02-19 02:28:00,
2013-02-18 21:34:00,55.8,48.4,30.20,NNE,30,0.0,1.0,76,0.00,,,0.00,meteohub,2013-02-19 02:34:00,
2013-02-18 21:40:00,55.8,48.4,30.20,NNE,29,0.0,1.0,76,0.00,,,0.00,meteohub,2013-02-19 02:40:00,
2013-02-18 21:46:00,55.6,48.2,30.20,NNE,29,0.0,0.0,76,0.00,,,0.00,meteohub,2013-02-19 02:46:00,
2013-02-18 21:52:00,55.2,47.8,30.20,NNE,29,0.0,0.0,76,0.00,,,0.00,meteohub,2013-02-19 02:52:00,
2013-02-18 21:57:00,55.2,47.8,30.20,NNE,30,0.0,1.0,76,0.00,,,0.00,meteohub,2013-02-19 02:57:00,
2013-02-18 22:02:00,55.0,47.7,30.20,NNE,30,0.0,1.0,76,0.00,,,0.00,meteohub,2013-02-19 03:02:00,
2013-02-18 22:08:00,55.2,47.8,30.20,NNE,31,2.0,2.0,76,0.00,,,0.00,meteohub,2013-02-19 03:08:00,
2013-02-18 22:14:00,55.2,47.8,30.20,NNE,33,0.0,3.0,76,0.00,,,0.00,meteohub,2013-02-19 03:14:00,
2013-02-18 22:20:00,55.2,48.2,30.20,SE,143,2.0,4.0,77,0.00,,,0.00,meteohub,2013-02-19 03:20:00,
2013-02-18 22:26:00,55.8,48.7,30.20,SSE,147,0.0,4.0,77,0.00,,,0.00,meteohub,2013-02-19 03:26:00,
2013-02-18 22:32:00,55.8,48.4,30.19,SSE,147,2.0,4.0,76,0.00,,,0.00,meteohub,2013-02-19 03:32:00,
2013-02-18 22:37:00,56.1,48.7,30.19,SSE,160,1.0,6.0,76,0.00,,,0.00,meteohub,2013-02-19 03:37:00,
2013-02-18 22:42:00,56.5,48.7,30.19,SSE,156,0.0,6.0,75,0.00,,,0.00,meteohub,2013-02-19 03:42:00,
2013-02-18 22:47:00,56.3,48.6,30.19,SE,135,0.0,6.0,75,0.00,,,0.00,meteohub,2013-02-19 03:47:00,
2013-02-18 22:52:00,56.1,48.7,30.19,SE,136,1.0,4.0,76,0.00,,,0.00,meteohub,2013-02-19 03:52:00,
2013-02-18 22:59:00,56.1,48.7,30.19,SE,137,3.0,4.0,76,0.00,,,0.00,meteohub,2013-02-19 03:59:00,
2013-02-18 23:06:00,56.3,48.9,30.18,SE,142,4.0,5.0,76,0.00,,,0.00,meteohub,2013-02-19 04:06:00,
2013-02-18 23:12:00,56.3,48.9,30.17,SE,145,2.0,6.0,76,0.00,,,0.00,meteohub,2013-02-19 04:12:00,
2013-02-18 23:18:00,56.1,48.9,30.18,ESE,122,2.0,7.0,77,0.00,,,0.00,meteohub,2013-02-19 04:18:00,
2013-02-18 23:24:00,56.1,48.9,30.18,SE,127,0.0,7.0,77,0.00,,,0.00,meteohub,2013-02-19 04:24:00,
2013-02-18 23:30:00,55.8,48.7,30.18,SE,127,1.0,5.0,77,0.00,,,0.00,meteohub,2013-02-19 04:30:00,
2013-02-18 23:37:00,55.6,48.9,30.18,SE,126,1.0,5.0,78,0.00,,,0.00,meteohub,2013-02-19 04:37:00,
2013-02-18 23:42:00,55.4,48.9,30.18,SE,126,0.0,2.0,79,0.00,,,0.00,meteohub,2013-02-19 04:42:00,
2013-02-18 23:49:00,55.6,49.1,30.19,SE,127,0.0,4.0,79,0.00,,,0.00,meteohub,2013-02-19 04:49:00,
2013-02-18 23:55:00,55.6,49.5,30.19,SE,129,2.0,4.0,80,0.00,,,0.00,meteohub,2013-02-19 04:55:00,